Location: Newark
(52.1752°N, 10.4140°W)
Time: 15:25:23
(UTC+00:00)

N. Korean satellite - Pass Details

Date: 19 November 2019
Orbit: 455 x 506 km, 97.2° (Epoch: 10 December)

Event Time Altitude Azimuth Distance (km) Brightness Sun altitude
Rises 18:20:11 0° 193° (SSW) 2,567 10.6 -14.3°
Reaches altitude 10° 18:22:27 10° 205° (SSW) 1,698 9.8 -14.6°
Maximum altitude 18:25:38 28° 266° (W) 977 8.9 -15.1°
Drops below altitude 10° 18:28:53 10° 326° (NW) 1,728 9.6 -15.6°
Sets 18:31:13 0° 338° (NNW) 2,623 10.4 -15.9°
